Location: Gallinara
(44.0333°N, 8.2333°E)
Time: 00:25:20
(UTC+00:00)

Cosmos 921 Rocket - Visible Passes

Search period start: 23 January 2021 00:00
Search period end: 02 February 2021 00:00
Orbit: 572 x 631 km, 75.8° (Epoch: 22 January)

Date Brightness Start Highest point End Pass type
(mag) Time Alt. Az. Time Alt. Az. Time Alt. Az.
23 Jan 5.8 03:42:35 12° NE 03:42:35 12° NE 03:42:58 10° NE visible
23 Jan 4.7 05:19:26 17° NNW 05:19:26 17° NNW 05:20:55 10° N visible
24 Jan 5.8 03:55:04 11° NNE 03:55:04 11° NNE 03:55:09 10° NNE visible
24 Jan 5.2 05:31:54 10° NNW 05:31:54 10° NNW 05:32:04 10° NNW visible
